Orbital elements of INTELSAT 605
| Launched | 13 August 1991 |
| Flight ended | – |
| Launch site | Europe's Spaceport, Kourou, French Guiana |
| Owner | International Telecommunications Satellite Organization (INTELSAT) |
| NORAD ID | 21653 |
| Alternative names |
IS-605 |
| Date fetched |
Epoch osculation |
Inc. [°] |
Ecc. | RA asc node [hr] |
Arg Peri. [°] |
Mean anom [°] |
Mean motion [rev/day] |
Abs. mag |
| Date fetched |
Epoch osculation |
Inc. [°] |
Ecc. | RA asc node [hr] |
Arg Peri. [°] |
Mean anom [°] |
Mean motion [rev/day] |
Abs. mag |
| 2026 May 08 17:57 | 2026 May 05 05:48:03 | 13.5284 | 0.00017 | 1.1905 | 260.1834 | 280.3721 | 0.99323 | – |
| 2026 May 07 17:58 | 2026 May 05 05:48:03 | 13.5284 | 0.00017 | 1.1905 | 260.1834 | 280.3721 | 0.99323 | – |
| 2026 May 06 17:57 | 2026 May 05 05:48:03 | 13.5284 | 0.00017 | 1.1905 | 260.1834 | 280.3721 | 0.99323 | – |
| 2026 May 05 17:57 | 2026 May 05 05:48:03 | 13.5284 | 0.00017 | 1.1905 | 260.1834 | 280.3721 | 0.99323 | – |
| 2026 May 04 17:57 | 2026 Apr 30 05:35:38 | 13.5233 | 0.00019 | 1.1929 | 263.8118 | 280.3721 | 0.99323 | – |
| 2026 May 03 17:57 | 2026 Apr 30 05:35:38 | 13.5233 | 0.00019 | 1.1929 | 263.8118 | 280.3721 | 0.99323 | – |
| 2026 May 02 17:57 | 2026 Apr 30 05:35:38 | 13.5233 | 0.00019 | 1.1929 | 263.8118 | 280.3721 | 0.99323 | – |
| 2026 May 01 17:56 | 2026 Apr 30 05:35:38 | 13.5233 | 0.00019 | 1.1929 | 263.8118 | 280.3721 | 0.99323 | – |
| 2026 Apr 30 17:56 | 2026 Apr 30 05:35:38 | 13.5233 | 0.00019 | 1.1929 | 263.8118 | 280.3721 | 0.99323 | – |
| 2026 Apr 29 17:57 | 2026 Apr 24 08:57:25 | 13.5173 | 0.00019 | 1.1957 | 265.7589 | 280.3721 | 0.99323 | – |
| 2026 Apr 28 17:56 | 2026 Apr 24 08:57:25 | 13.5173 | 0.00019 | 1.1957 | 265.7589 | 280.3721 | 0.99323 | – |
| 2026 Apr 27 17:58 | 2026 Apr 24 08:57:25 | 13.5173 | 0.00019 | 1.1957 | 265.7589 | 280.3721 | 0.99323 | – |
| 2026 Apr 26 17:58 | 2026 Apr 24 08:57:25 | 13.5173 | 0.00019 | 1.1957 | 265.7589 | 280.3721 | 0.99323 | – |
| 2026 Apr 25 17:58 | 2026 Apr 24 08:57:25 | 13.5173 | 0.00019 | 1.1957 | 265.7589 | 280.3721 | 0.99323 | – |
| 2026 Apr 24 17:59 | 2026 Apr 24 08:57:25 | 13.5173 | 0.00019 | 1.1957 | 265.7589 | 280.3721 | 0.99323 | – |
| 2026 Apr 23 17:57 | 2026 Apr 19 04:22:38 | 13.5121 | 0.00019 | 1.1983 | 267.4558 | 280.3721 | 0.99323 | – |
| 2026 Apr 22 17:57 | 2026 Apr 19 04:22:38 | 13.5121 | 0.00019 | 1.1983 | 267.4558 | 280.3721 | 0.99323 | – |
| 2026 Apr 21 17:57 | 2026 Apr 19 04:22:38 | 13.5121 | 0.00019 | 1.1983 | 267.4558 | 280.3721 | 0.99323 | – |
| 2026 Apr 20 17:57 | 2026 Apr 19 04:22:38 | 13.5121 | 0.00019 | 1.1983 | 267.4558 | 280.3721 | 0.99323 | – |
| 2026 Apr 19 17:58 | 2026 Apr 19 04:22:38 | 13.5121 | 0.00019 | 1.1983 | 267.4558 | 280.3721 | 0.99323 | – |
| 2026 Apr 18 17:56 | 2026 Apr 13 01:58:20 | 13.5063 | 0.00023 | 1.2013 | 266.7078 | 280.3721 | 0.99323 | – |
| 2026 Apr 16 17:57 | 2026 Apr 13 01:58:20 | 13.5063 | 0.00023 | 1.2013 | 266.7078 | 280.3721 | 0.99323 | – |
| 2026 Apr 14 17:57 | 2026 Apr 13 01:58:20 | 13.5063 | 0.00023 | 1.2013 | 266.7078 | 280.3721 | 0.99323 | – |
| 2026 Apr 13 17:57 | 2026 Apr 13 01:58:20 | 13.5063 | 0.00023 | 1.2013 | 266.7078 | 280.3721 | 0.99323 | – |
| 2026 Apr 12 17:57 | 2026 Apr 08 02:06:38 | 13.5011 | 0.00024 | 1.2037 | 265.2285 | 280.3721 | 0.99323 | – |
| 2026 Apr 11 17:57 | 2026 Apr 08 02:06:38 | 13.5011 | 0.00024 | 1.2037 | 265.2285 | 280.3721 | 0.99323 | – |